| time (UTC) | temp F | wind direction | speed MPH | gust MPH | rain 1hr in | rain 24hr in | rain mn in | humidity % | barometer mb |
| 20260906125005 | 72 | 20 | 5.0 | 9.0 | 0.00 | 0.00 | 0.00 | 89 | 1015.0 |
| 20260906124502 | 72 | 15 | 5.0 | 9.0 | 0.00 | 0.00 | 0.00 | 89 | 1014.9 |
| 20260906124003 | 72 | 13 | 5.0 | 10.0 | 0.00 | 0.00 | 0.00 | 89 | 1014.9 |
| 20260906123504 | 72 | 17 | 6.0 | 10.0 | 0.00 | 0.00 | 0.00 | 89 | 1014.8 |
| 20260906123003 | 72 | 21 | 4.0 | 10.0 | 0.00 | 0.00 | 0.00 | 89 | 1014.7 |
| 20260906122004 | 72 | 27 | 3.0 | 7.0 | 0.00 | 0.00 | 0.00 | 89 | 1014.6 |
| 20260906121503 | 72 | 30 | 3.0 | 5.0 | 0.00 | 0.00 | 0.00 | 90 | 1014.6 |
| 20260906121003 | 71 | 32 | 3.0 | 5.0 | 0.00 | 0.00 | 0.00 | 90 | 1014.4 |
| 20260906120504 | 71 | 27 | 2.0 | 4.0 | 0.00 | 0.00 | 0.00 | 90 | 1014.2 |
| 20260906120003 | 71 | 42 | 2.0 | 4.0 | 0.00 | 0.00 | 0.00 | 90 | 1014.1 |
| 20260906115503 | 71 | 47 | 2.0 | 4.0 | 0.00 | 0.00 | 0.00 | 90 | 1014.1 |
| 20260906115004 | 71 | 45 | 3.0 | 6.0 | 0.00 | 0.00 | 0.00 | 90 | 1014.0 |
| 20260906114503 | 71 | 37 | 4.0 | 9.0 | 0.00 | 0.00 | 0.00 | 89 | 1014.0 |
| 20260906114003 | 71 | 28 | 6.0 | 10.0 | 0.00 | 0.00 | 0.00 | 89 | 1013.8 |
| 20260906113504 | 71 | 23 | 7.0 | 11.0 | 0.00 | 0.00 | 0.00 | 89 | 1013.8 |
| 20260906113003 | 71 | 27 | 8.0 | 11.0 | 0.00 | 0.00 | 0.00 | 89 | 1013.8 |
| 20260906112503 | 71 | 34 | 8.0 | 13.0 | 0.00 | 0.00 | 0.00 | 89 | 1013.5 |
| 20260906112004 | 71 | 35 | 9.0 | 14.0 | 0.00 | 0.00 | 0.00 | 89 | 1013.5 |
| 20260906111503 | 71 | 33 | 9.0 | 14.0 | 0.00 | 0.00 | 0.00 | 89 | 1013.5 |
| 20260906111002 | 71 | 25 | 8.0 | 14.0 | 0.00 | 0.00 | 0.00 | 89 | 1013.6 |
| 20260906110505 | 71 | 21 | 7.0 | 14.0 | 0.00 | 0.00 | 0.00 | 89 | 1013.6 |
| 20260906110003 | 71 | 21 | 5.0 | 9.0 | 0.00 | 0.00 | 0.00 | 89 | 1013.5 |
| 20260906105502 | 71 | 27 | 7.0 | 13.0 | 0.00 | 0.00 | 0.00 | 89 | 1013.4 |
| 20260906104502 | 71 | 27 | 8.0 | 14.0 | 0.00 | 0.00 | 0.00 | 89 | 1013.4 |
| 20260906104003 | 71 | 28 | 8.0 | 11.0 | 0.00 | 0.00 | 0.00 | 90 | 1013.5 |
| 20260906103504 | 71 | 27 | 8.0 | 12.0 | 0.00 | 0.00 | 0.00 | 90 | 1013.5 |
| 20260906103002 | 71 | 27 | 7.0 | 13.0 | 0.00 | 0.00 | 0.00 | 89 | 1013.5 |
| 20260906102503 | 71 | 29 | 9.0 | 14.0 | 0.00 | 0.00 | 0.00 | 89 | 1013.4 |
| 20260906102004 | 71 | 28 | 9.0 | 14.0 | 0.00 | 0.00 | 0.00 | 89 | 1013.4 |
| 20260906101503 | 70 | 27 | 9.0 | 13.0 | 0.00 | 0.00 | 0.00 | 89 | 1013.4 |
| 20260906101003 | 71 | 28 | 9.0 | 13.0 | 0.00 | 0.00 | 0.00 | 89 | 1013.3 |
| 20260906100002 | 71 | 33 | 7.0 | 11.0 | 0.00 | 0.00 | 0.00 | 89 | 1013.1 |
| 20260906095503 | 71 | 36 | 7.0 | 11.0 | 0.00 | 0.00 | 0.00 | 89 | 1013.0 |
| 20260906095004 | 71 | 33 | 9.0 | 14.0 | 0.00 | 0.00 | 0.00 | 89 | 1013.1 |
| 20260906094503 | 71 | 32 | 9.0 | 14.0 | 0.00 | 0.00 | 0.00 | 89 | 1013.1 |
| 20260906094002 | 71 | 34 | 8.0 | 14.0 | 0.00 | 0.00 | 0.00 | 89 | 1013.1 |
| 20260906093504 | 71 | 33 | 9.0 | 13.0 | 0.00 | 0.00 | 0.00 | 89 | 1013.1 |
| 20260906093002 | 71 | 30 | 9.0 | 13.0 | 0.00 | 0.00 | 0.00 | 89 | 1013.1 |
| 20260906092503 | 71 | 25 | 7.0 | 13.0 | 0.00 | 0.00 | 0.00 | 89 | 1013.1 |
| 20260906092004 | 71 | 20 | 5.0 | 11.0 | 0.00 | 0.00 | 0.00 | 88 | 1012.9 |
| 20260906091002 | 71 | 16 | 4.0 | 7.0 | 0.00 | 0.00 | 0.00 | 88 | 1012.8 |
| 20260906090504 | 71 | 16 | 4.0 | 8.0 | 0.00 | 0.00 | 0.00 | 88 | 1012.8 |
| 20260906085503 | 72 | 18 | 4.0 | 9.0 | 0.00 | 0.00 | 0.00 | 88 | 1012.6 |
| 20260906085004 | 72 | 20 | 4.0 | 8.0 | 0.00 | 0.00 | 0.00 | 88 | 1012.6 |
| 20260906084502 | 72 | 19 | 5.0 | 8.0 | 0.00 | 0.00 | 0.00 | 88 | 1012.6 |
| 20260906084003 | 72 | 21 | 5.0 | 8.0 | 0.00 | 0.00 | 0.00 | 88 | 1012.7 |
| 20260906083003 | 72 | 24 | 5.0 | 9.0 | 0.00 | 0.00 | 0.00 | 88 | 1012.7 |
| 20260906082502 | 72 | 19 | 5.0 | 9.0 | 0.00 | 0.00 | 0.00 | 88 | 1012.8 |
| 20260906082005 | 73 | 14 | 5.0 | 9.0 | 0.00 | 0.00 | 0.00 | 88 | 1012.8 |
| 20260906081502 | 73 | 14 | 5.0 | 9.0 | 0.00 | 0.00 | 0.00 | 88 | 1012.8 |
| 20260906081002 | 73 | 16 | 5.0 | 8.0 | 0.00 | 0.00 | 0.00 | 87 | 1012.9 |
| 20260906080504 | 73 | 17 | 5.0 | 8.0 | 0.00 | 0.00 | 0.00 | 87 | 1012.8 |
| 20260906080003 | 73 | 25 | 5.0 | 8.0 | 0.00 | 0.00 | 0.00 | 87 | 1012.8 |
| 20260906075502 | 74 | 25 | 6.0 | 9.0 | 0.00 | 0.00 | 0.00 | 87 | 1012.8 |
| 20260906075004 | 74 | 21 | 6.0 | 9.0 | 0.00 | 0.00 | 0.00 | 87 | 1012.8 |
| 20260906074503 | 74 | 20 | 5.0 | 9.0 | 0.00 | 0.00 | 0.00 | 87 | 1012.8 |
| 20260906074002 | 74 | 17 | 5.0 | 8.0 | 0.00 | 0.00 | 0.00 | 87 | 1012.8 |
| 20260906073504 | 74 | 14 | 5.0 | 10.0 | 0.00 | 0.00 | 0.00 | 87 | 1012.8 |
| 20260906073003 | 74 | 13 | 4.0 | 10.0 | 0.00 | 0.00 | 0.00 | 87 | 1012.9 |
| 20260906072502 | 74 | 19 | 3.0 | 8.0 | 0.00 | 0.00 | 0.00 | 86 | 1012.8 |
| 20260906071503 | 75 | 36 | 2.0 | 4.0 | 0.00 | 0.00 | 0.00 | 86 | 1012.9 |
| 20260906071002 | 75 | 45 | 2.0 | 5.0 | 0.00 | 0.00 | 0.00 | 86 | 1012.8 |
| 20260906070504 | 75 | 40 | 3.0 | 5.0 | 0.00 | 0.00 | 0.00 | 86 | 1012.8 |
| 20260906070003 | 75 | 37 | 4.0 | 7.0 | 0.00 | 0.00 | 0.00 | 86 | 1012.7 |
| 20260906065502 | 75 | 31 | 5.0 | 7.0 | 0.00 | 0.00 | 0.00 | 86 | 1012.8 |
| 20260906065004 | 75 | 26 | 4.0 | 6.0 | 0.00 | 0.00 | 0.00 | 86 | 1012.8 |
| 20260906064502 | 76 | 27 | 4.0 | 5.0 | 0.00 | 0.00 | 0.00 | 85 | 1012.8 |
| 20260906064002 | 76 | 38 | 3.0 | 5.0 | 0.00 | 0.00 | 0.00 | 85 | 1012.8 |
| 20260906063504 | 76 | 46 | 3.0 | 5.0 | 0.00 | 0.00 | 0.00 | 85 | 1012.8 |
| 20260906063002 | 76 | 46 | 3.0 | 5.0 | 0.00 | 0.00 | 0.00 | 85 | 1012.7 |
| 20260906062502 | 76 | 44 | 3.0 | 5.0 | 0.00 | 0.00 | 0.00 | 85 | 1012.8 |
| 20260906062004 | 77 | 41 | 2.0 | 4.0 | 0.00 | 0.00 | 0.00 | 84 | 1012.8 |
| 20260906061503 | 77 | 46 | 2.0 | 4.0 | 0.00 | 0.00 | 0.00 | 84 | 1012.8 |
| 20260906061002 | 77 | 52 | 3.0 | 4.0 | 0.00 | 0.00 | 0.00 | 84 | 1012.8 |
| 20260906060504 | 77 | 48 | 2.0 | 4.0 | 0.00 | 0.00 | 0.00 | 84 | 1012.8 |
| 20260906060002 | 77 | 43 | 3.0 | 4.0 | 0.00 | 0.00 | 0.00 | 84 | 1013.0 |
| 20260906055502 | 78 | 44 | 4.0 | 9.0 | 0.00 | 0.00 | 0.00 | 84 | 1012.9 |
| 20260906055004 | 78 | 45 | 5.0 | 9.0 | 0.00 | 0.00 | 0.00 | 84 | 1012.9 |
| 20260906053504 | 78 | 44 | 3.0 | 8.0 | 0.00 | 0.00 | 0.00 | 83 | 1012.9 |
| 20260906053002 | 78 | 43 | 3.0 | 8.0 | 0.00 | 0.00 | 0.00 | 83 | 1013.1 |
| 20260906052503 | 79 | 38 | 3.0 | 8.0 | 0.00 | 0.00 | 0.00 | 83 | 1013.0 |
| 20260906052004 | 79 | 32 | 4.0 | 8.0 | 0.00 | 0.00 | 0.00 | 83 | 1013.0 |
| 20260906051502 | 79 | 29 | 5.0 | 8.0 | 0.00 | 0.00 | 0.00 | 83 | 1013.0 |
| 20260906050503 | 80 | 33 | 5.0 | 8.0 | 0.00 | 0.00 | 0.00 | 83 | 1013.0 |
| 20260906050003 | 80 | 35 | 5.0 | 11.0 | 0.00 | 0.00 | 0.00 | 82 | 1012.9 |
| 20260906045503 | 80 | 39 | 6.0 | 11.0 | 0.00 | 0.00 | 0.00 | 83 | 1012.6 |
| 20260906045004 | 80 | 39 | 6.0 | 9.0 | 0.00 | 0.00 | 0.00 | 82 | 1012.5 |
| 20260906044002 | 81 | 42 | 6.0 | 9.0 | 0.00 | 0.00 | 0.00 | 82 | 1012.4 |
| 20260906043503 | 81 | 40 | 7.0 | 16.0 | 0.00 | 0.00 | 0.00 | 82 | 1012.4 |
| 20260906042502 | 81 | 39 | 7.0 | 12.0 | 0.00 | 0.00 | 0.00 | 82 | 1012.3 |
| 20260906042004 | 82 | 35 | 7.0 | 11.0 | 0.00 | 0.00 | 0.00 | 82 | 1012.4 |
| 20260906041502 | 82 | 35 | 7.0 | 12.0 | 0.00 | 0.00 | 0.00 | 82 | 1012.5 |
| 20260906041002 | 82 | 35 | 8.0 | 14.0 | 0.00 | 0.00 | 0.00 | 82 | 1012.4 |
| 20260906040505 | 82 | 34 | 9.0 | 14.0 | 0.00 | 0.00 | 0.00 | 82 | 1012.5 |
| 20260906040003 | 82 | 31 | 8.0 | 14.0 | 0.00 | 0.00 | 0.00 | 82 | 1012.4 |
| 20260906035503 | 83 | 28 | 9.0 | 15.0 | 0.00 | 0.00 | 0.00 | 81 | 1012.2 |
| 20260906035004 | 83 | 26 | 9.0 | 15.0 | 0.00 | 0.00 | 0.00 | 81 | 1012.2 |
| 20260906034502 | 83 | 29 | 9.0 | 14.0 | 0.00 | 0.00 | 0.00 | 81 | 1012.2 |
| 20260906033504 | 83 | 29 | 8.0 | 12.0 | 0.00 | 0.00 | 0.00 | 81 | 1011.9 |
| 20260906033002 | 83 | 28 | 7.0 | 13.0 | 0.00 | 0.00 | 0.00 | 81 | 1011.9 |
| 20260906032502 | 83 | 29 | 7.0 | 13.0 | 0.00 | 0.00 | 0.00 | 81 | 1011.9 |
| 20260906032003 | 83 | 29 | 6.0 | 10.0 | 0.00 | 0.00 | 0.00 | 81 | 1011.9 |
| 20260906031502 | 82 | 25 | 5.0 | 8.0 | 0.00 | 0.00 | 0.00 | 80 | 1011.7 |
| 20260906030504 | 83 | 28 | 2.0 | 5.0 | 0.00 | 0.00 | 0.00 | 79 | 1011.7 |
| 20260906030002 | 83 | 27 | 0.0 | 4.0 | 0.00 | 0.00 | 0.00 | 78 | 1011.6 |
| 20260906025503 | 83 | 0 | 0.0 | 0.0 | 0.00 | 0.00 | 0.00 | 78 | 1011.6 |
| 20260906025003 | 83 | 0 | 0.0 | 0.0 | 0.00 | 0.00 | 0.00 | 78 | 1011.6 |
| 20260906024503 | 83 | 0 | 0.0 | 0.0 | 0.00 | 0.00 | 0.00 | 77 | 1011.5 |
| 20260906024002 | 84 | 0 | 0.0 | 0.0 | 0.00 | 0.00 | 0.00 | 77 | 1011.5 |
| 20260906023504 | 84 | 0 | 0.0 | 0.0 | 0.00 | 0.00 | 0.00 | 76 | 1011.5 |
| 20260906022502 | 84 | 0 | 0.0 | 0.0 | 0.00 | 0.00 | 0.00 | 76 | 1011.3 |
| 20260906022003 | 84 | 0 | 0.0 | 0.0 | 0.00 | 0.00 | 0.00 | 76 | 1011.2 |
| 20260906021503 | 85 | 0 | 0.0 | 0.0 | 0.00 | 0.00 | 0.00 | 75 | 1011.1 |
| 20260906020503 | 85 | 0 | 0.0 | 0.0 | 0.00 | 0.00 | 0.00 | 74 | 1010.9 |
| 20260906015502 | 86 | 0 | 0.0 | 0.0 | 0.00 | 0.00 | 0.00 | 73 | 1010.9 |
| 20260906014502 | 86 | 0 | 0.0 | 0.0 | 0.00 | 0.00 | 0.00 | 73 | 1010.8 |
| 20260906014002 | 86 | 0 | 0.0 | 0.0 | 0.00 | 0.00 | 0.00 | 73 | 1010.7 |
| 20260906013504 | 86 | 0 | 0.0 | 0.0 | 0.00 | 0.00 | 0.00 | 72 | 1010.8 |
| 20260906012502 | 86 | 0 | 0.0 | 0.0 | 0.00 | 0.00 | 0.00 | 71 | 1010.7 |
| 20260906011502 | 87 | 0 | 0.0 | 0.0 | 0.00 | 0.00 | 0.00 | 70 | 1010.7 |
| 20260906011002 | 87 | 0 | 0.0 | 0.0 | 0.00 | 0.00 | 0.00 | 70 | 1010.6 |
| 20260906010504 | 87 | 0 | 0.0 | 0.0 | 0.00 | 0.00 | 0.00 | 69 | 1010.6 |
| 20260906010003 | 87 | 0 | 0.0 | 0.0 | 0.00 | 0.00 | 0.00 | 69 | 1010.5 |
| 20260906005502 | 88 | 0 | 0.0 | 0.0 | 0.00 | 0.00 | 0.00 | 68 | 1010.4 |
| 20260906005004 | 88 | 0 | 0.0 | 0.0 | 0.00 | 0.00 | 0.00 | 67 | 1010.2 |
| 20260906004003 | 89 | 0 | 0.0 | 0.0 | 0.00 | 0.00 | 0.00 | 66 | 1010.2 |
| 20260906003503 | 89 | 0 | 0.0 | 0.0 | 0.00 | 0.00 | 0.00 | 66 | 1010.1 |
| 20260906003002 | 89 | 0 | 0.0 | 0.0 | 0.00 | 0.00 | 0.00 | 65 | 1010.2 |
| 20260906002503 | 90 | 0 | 0.0 | 0.0 | 0.00 | 0.00 | 0.00 | 64 | 1010.2 |
| 20260906001003 | 90 | 37 | 2.0 | 3.0 | 0.00 | 0.00 | 0.00 | 63 | 1010.3 |
| 20260906000504 | 91 | 37 | 2.0 | 3.0 | 0.00 | 0.00 | 0.00 | 62 | 1010.3 |
| 20260906000002 | 91 | 37 | 2.0 | 3.0 | 0.00 | 0.00 | 0.00 | 61 | 1010.3 |
| 20260905235503 | 92 | 36 | 2.0 | 3.0 | 0.00 | 0.00 | 0.00 | 60 | 1010.3 |
| 20260905234002 | 93 | 38 | 3.0 | 4.0 | 0.00 | 0.00 | 0.00 | 58 | 1010.2 |
| 20260905233503 | 93 | 30 | 3.0 | 4.0 | 0.00 | 0.00 | 0.00 | 58 | 1010.2 |
| 20260905233002 | 93 | 13 | 3.0 | 7.0 | 0.00 | 0.00 | 0.00 | 57 | 1010.2 |
| 20260905232503 | 94 | 15 | 4.0 | 8.0 | 0.00 | 0.00 | 0.00 | 57 | 1010.2 |
| 20260905232004 | 94 | 23 | 4.0 | 8.0 | 0.00 | 0.00 | 0.00 | 56 | 1010.2 |
| 20260905231502 | 94 | 30 | 4.0 | 6.0 | 0.00 | 0.00 | 0.00 | 56 | 1010.0 |
| 20260905231002 | 95 | 19 | 4.0 | 9.0 | 0.00 | 0.00 | 0.00 | 55 | 1010.0 |
| 20260905230504 | 95 | 4 | 5.0 | 9.0 | 0.00 | 0.00 | 0.00 | 55 | 1010.1 |
| 20260905230002 | 95 | 2 | 4.0 | 8.0 | 0.00 | 0.00 | 0.00 | 54 | 1009.9 |
| 20260905225502 | 95 | 2 | 6.0 | 11.0 | 0.00 | 0.00 | 0.00 | 53 | 1010.0 |
| 20260905224502 | 96 | 1 | 8.0 | 15.0 | 0.00 | 0.00 | 0.00 | 52 | 1009.9 |
| 20260905224002 | 96 | 3 | 9.0 | 14.0 | 0.00 | 0.00 | 0.00 | 52 | 1010.0 |
| 20260905223003 | 97 | 3 | 7.0 | 12.0 | 0.00 | 0.00 | 0.00 | 51 | 1009.9 |
| 20260905222502 | 97 | 6 | 8.0 | 12.0 | 0.00 | 0.00 | 0.00 | 51 | 1009.9 |
| 20260905222003 | 97 | 5 | 8.0 | 13.0 | 0.00 | 0.00 | 0.00 | 50 | 1009.9 |
| 20260905220503 | 97 | 355 | 7.0 | 12.0 | 0.00 | 0.00 | 0.00 | 50 | 1009.8 |
| 20260905220002 | 97 | 355 | 7.0 | 13.0 | 0.00 | 0.00 | 0.00 | 50 | 1010.0 |
| 20260905215502 | 97 | 358 | 7.0 | 13.0 | 0.00 | 0.00 | 0.00 | 49 | 1009.8 |
| 20260905215004 | 98 | 347 | 6.0 | 13.0 | 0.00 | 0.00 | 0.00 | 49 | 1009.8 |
| 20260905214502 | 97 | 344 | 6.0 | 12.0 | 0.00 | 0.00 | 0.00 | 50 | 1009.8 |
| 20260905214002 | 97 | 349 | 7.0 | 12.0 | 0.00 | 0.00 | 0.00 | 50 | 1009.7 |
| 20260905213002 | 96 | 344 | 5.0 | 11.0 | 0.00 | 0.00 | 0.00 | 52 | 1009.8 |
| 20260905212502 | 96 | 335 | 5.0 | 9.0 | 0.00 | 0.00 | 0.00 | 52 | 1009.9 |
| 20260905211502 | 96 | 338 | 7.0 | 13.0 | 0.00 | 0.00 | 0.00 | 50 | 1010.1 |
| 20260905211002 | 96 | 339 | 8.0 | 14.0 | 0.00 | 0.00 | 0.00 | 49 | 1010.1 |
| 20260905210002 | 98 | 353 | 9.0 | 16.0 | 0.00 | 0.00 | 0.00 | 49 | 1010.2 |
| 20260905205502 | 98 | 351 | 10.0 | 17.0 | 0.00 | 0.00 | 0.00 | 48 | 1010.2 |
| 20260905205004 | 98 | 345 | 10.0 | 19.0 | 0.00 | 0.00 | 0.00 | 47 | 1010.3 |
| 20260905204502 | 98 | 348 | 10.0 | 19.0 | 0.00 | 0.00 | 0.00 | 48 | 1010.3 |
| 20260905204002 | 99 | 349 | 7.0 | 17.0 | 0.00 | 0.00 | 0.00 | 47 | 1010.3 |
| 20260905203503 | 99 | 337 | 6.0 | 15.0 | 0.00 | 0.00 | 0.00 | 47 | 1010.1 |
| 20260905203002 | 99 | 336 | 6.0 | 15.0 | 0.00 | 0.00 | 0.00 | 46 | 1010.2 |
| 20260905202502 | 99 | 337 | 5.0 | 12.0 | 0.00 | 0.00 | 0.00 | 46 | 1010.3 |
| 20260905201003 | 100 | 317 | 5.0 | 15.0 | 0.00 | 0.00 | 0.00 | 46 | 1010.4 |
| 20260905200002 | 100 | 356 | 7.0 | 12.0 | 0.00 | 0.00 | 0.00 | 46 | 1010.5 |
| 20260905195502 | 99 | 350 | 7.0 | 12.0 | 0.00 | 0.00 | 0.00 | 47 | 1010.5 |
| 20260905195004 | 99 | 333 | 7.0 | 12.0 | 0.00 | 0.00 | 0.00 | 47 | 1010.5 |
| 20260905194502 | 99 | 322 | 6.0 | 12.0 | 0.00 | 0.00 | 0.00 | 47 | 1010.6 |
| 20260905194002 | 100 | 299 | 4.0 | 11.0 | 0.00 | 0.00 | 0.00 | 47 | 1010.5 |
| 20260905193504 | 99 | 278 | 4.0 | 11.0 | 0.00 | 0.00 | 0.00 | 46 | 1010.6 |
| 20260905193002 | 100 | 272 | 4.0 | 11.0 | 0.00 | 0.00 | 0.00 | 47 | 1010.5 |
| 20260905192502 | 100 | 307 | 2.0 | 10.0 | 0.00 | 0.00 | 0.00 | 47 | 1010.6 |
| 20260905192003 | 99 | 305 | 2.0 | 6.0 | 0.00 | 0.00 | 0.00 | 49 | 1010.7 |
| 20260905191001 | 98 | 275 | 3.0 | 7.0 | 0.00 | 0.00 | 0.00 | 50 | 1010.9 |
| 20260905190503 | 98 | 275 | 4.0 | 10.0 | 0.00 | 0.00 | 0.00 | 50 | 1010.9 |
| 20260905190002 | 98 | 269 | 4.0 | 10.0 | 0.00 | 0.00 | 0.00 | 48 | 1011.0 |
| 20260905185502 | 98 | 264 | 4.0 | 10.0 | 0.00 | 0.00 | 0.00 | 50 | 1011.1 |
| 20260905184501 | 97 | 264 | 3.0 | 7.0 | 0.00 | 0.00 | 0.00 | 50 | 1011.2 |
| 20260905184002 | 97 | 245 | 3.0 | 6.0 | 0.00 | 0.00 | 0.00 | 52 | 1011.3 |
| 20260905183504 | 97 | 295 | 3.0 | 10.0 | 0.00 | 0.00 | 0.00 | 53 | 1011.5 |
| 20260905183002 | 97 | 307 | 4.0 | 11.0 | 0.00 | 0.00 | 0.00 | 52 | 1011.5 |
| 20260905182502 | 97 | 283 | 4.0 | 11.0 | 0.00 | 0.00 | 0.00 | 53 | 1011.6 |
| 20260905182004 | 97 | 264 | 2.0 | 7.0 | 0.00 | 0.00 | 0.00 | 55 | 1011.5 |
| 20260905181501 | 96 | 241 | 2.0 | 5.0 | 0.00 | 0.00 | 0.00 | 55 | 1011.5 |
| 20260905181001 | 96 | 231 | 2.0 | 8.0 | 0.00 | 0.00 | 0.00 | 55 | 1011.6 |
| 20260905180504 | 96 | 245 | 3.0 | 9.0 | 0.00 | 0.00 | 0.00 | 56 | 1011.7 |
| 20260905180002 | 96 | 236 | 4.0 | 9.0 | 0.00 | 0.00 | 0.00 | 55 | 1011.7 |
| 20260905175502 | 96 | 235 | 4.0 | 8.0 | 0.00 | 0.00 | 0.00 | 56 | 1011.7 |
| 20260905175003 | 96 | 235 | 3.0 | 8.0 | 0.00 | 0.00 | 0.00 | 57 | 1011.8 |
| 20260905174002 | 95 | 276 | 3.0 | 8.0 | 0.00 | 0.00 | 0.00 | 58 | 1011.9 |
| 20260905173002 | 95 | 243 | 3.0 | 9.0 | 0.00 | 0.00 | 0.00 | 58 | 1011.9 |
| 20260905172502 | 95 | 241 | 4.0 | 10.0 | 0.00 | 0.00 | 0.00 | 59 | 1011.9 |
| 20260905172003 | 95 | 248 | 3.0 | 10.0 | 0.00 | 0.00 | 0.00 | 61 | 1012.0 |
| 20260905171502 | 94 | 261 | 2.0 | 8.0 | 0.00 | 0.00 | 0.00 | 61 | 1012.1 |
| 20260905171001 | 94 | 226 | 3.0 | 8.0 | 0.00 | 0.00 | 0.00 | 61 | 1012.2 |
| 20260905170503 | 94 | 221 | 4.0 | 8.0 | 0.00 | 0.00 | 0.00 | 61 | 1012.3 |
| 20260905165502 | 93 | 242 | 3.0 | 7.0 | 0.00 | 0.00 | 0.00 | 62 | 1012.4 |
| 20260905165003 | 93 | 226 | 3.0 | 7.0 | 0.00 | 0.00 | 0.00 | 62 | 1012.5 |
| 20260905164502 | 93 | 219 | 4.0 | 9.0 | 0.00 | 0.00 | 0.00 | 62 | 1012.4 |
| 20260905164002 | 93 | 202 | 4.0 | 10.0 | 0.00 | 0.00 | 0.00 | 62 | 1012.5 |
| 20260905163504 | 93 | 210 | 3.0 | 10.0 | 0.00 | 0.00 | 0.00 | 63 | 1012.4 |
| 20260905163001 | 92 | 242 | 3.0 | 8.0 | 0.00 | 0.00 | 0.00 | 64 | 1012.5 |
| 20260905162502 | 92 | 234 | 4.0 | 7.0 | 0.00 | 0.00 | 0.00 | 63 | 1012.5 |
| 20260905162003 | 92 | 220 | 3.0 | 7.0 | 0.00 | 0.00 | 0.00 | 63 | 1012.7 |
| 20260905161502 | 92 | 246 | 2.0 | 6.0 | 0.00 | 0.00 | 0.00 | 64 | 1012.7 |
| 20260905161002 | 91 | 272 | 3.0 | 7.0 | 0.00 | 0.00 | 0.00 | 65 | 1012.7 |
| 20260905160503 | 91 | 267 | 3.0 | 8.0 | 0.00 | 0.00 | 0.00 | 65 | 1012.7 |
| 20260905160002 | 91 | 244 | 3.0 | 8.0 | 0.00 | 0.00 | 0.00 | 65 | 1012.6 |
| 20260905155501 | 91 | 217 | 3.0 | 9.0 | 0.00 | 0.00 | 0.00 | 66 | 1012.6 |
| 20260905155003 | 91 | 214 | 3.0 | 9.0 | 0.00 | 0.00 | 0.00 | 67 | 1012.6 |
| 20260905154501 | 90 | 224 | 3.0 | 7.0 | 0.00 | 0.00 | 0.00 | 67 | 1012.7 |
| 20260905154002 | 90 | 245 | 3.0 | 7.0 | 0.00 | 0.00 | 0.00 | 68 | 1012.8 |
| 20260905153503 | 90 | 234 | 3.0 | 6.0 | 0.00 | 0.00 | 0.00 | 69 | 1012.8 |
| 20260905153002 | 90 | 240 | 3.0 | 6.0 | 0.00 | 0.00 | 0.00 | 68 | 1012.8 |
| 20260905152003 | 89 | 250 | 2.0 | 7.0 | 0.00 | 0.00 | 0.00 | 70 | 1012.8 |
| 20260905151502 | 89 | 252 | 2.0 | 6.0 | 0.00 | 0.00 | 0.00 | 71 | 1012.8 |
| 20260905151002 | 88 | 258 | 3.0 | 6.0 | 0.00 | 0.00 | 0.00 | 70 | 1012.8 |
| 20260905150503 | 88 | 234 | 3.0 | 8.0 | 0.00 | 0.00 | 0.00 | 70 | 1012.9 |
| 20260905150002 | 88 | 232 | 3.0 | 8.0 | 0.00 | 0.00 | 0.00 | 70 | 1012.8 |
| 20260905145501 | 88 | 231 | 1.0 | 4.0 | 0.00 | 0.00 | 0.00 | 73 | 1012.8 |
| 20260905145003 | 88 | 220 | 2.0 | 5.0 | 0.00 | 0.00 | 0.00 | 73 | 1012.8 |
| 20260905144502 | 87 | 236 | 3.0 | 5.0 | 0.00 | 0.00 | 0.00 | 72 | 1012.7 |
| 20260905144002 | 87 | 237 | 2.0 | 6.0 | 0.00 | 0.00 | 0.00 | 74 | 1012.7 |
| 20260905143505 | 87 | 234 | 2.0 | 7.0 | 0.00 | 0.00 | 0.00 | 75 | 1012.7 |
| 20260905143001 | 86 | 239 | 2.0 | 7.0 | 0.00 | 0.00 | 0.00 | 76 | 1012.7 |
| 20260905142501 | 86 | 221 | 3.0 | 7.0 | 0.00 | 0.00 | 0.00 | 77 | 1012.6 |
| 20260905142003 | 86 | 215 | 3.0 | 5.0 | 0.00 | 0.00 | 0.00 | 78 | 1012.6 |
| 20260905141002 | 85 | 225 | 2.0 | 4.0 | 0.00 | 0.00 | 0.00 | 78 | 1012.8 |
| 20260905140503 | 85 | 216 | 1.0 | 4.0 | 0.00 | 0.00 | 0.00 | 80 | 1012.9 |
| 20260905140001 | 84 | 213 | 2.0 | 5.0 | 0.00 | 0.00 | 0.00 | 81 | 1012.9 |
| 20260905135502 | 84 | 211 | 2.0 | 5.0 | 0.00 | 0.00 | 0.00 | 81 | 1012.9 |
| 20260905135003 | 84 | 219 | 1.0 | 4.0 | 0.00 | 0.00 | 0.00 | 81 | 1013.0 |
| 20260905134502 | 83 | 0 | 0.0 | 0.0 | 0.00 | 0.00 | 0.00 | 83 | 1013.0 |
| 20260905134002 | 83 | 0 | 0.0 | 0.0 | 0.00 | 0.00 | 0.00 | 83 | 1013.0 |
| 20260905133503 | 82 | 0 | 0.0 | 0.0 | 0.00 | 0.00 | 0.00 | 84 | 1013.0 |
| 20260905133001 | 82 | 0 | 0.0 | 0.0 | 0.00 | 0.00 | 0.00 | 84 | 1012.9 |
| 20260905132502 | 81 | 187 | 0.0 | 3.0 | 0.00 | 0.00 | 0.00 | 85 | 1012.9 |
| 20260905132004 | 81 | 188 | 2.0 | 5.0 | 0.00 | 0.00 | 0.00 | 85 | 1012.9 |
| 20260905131502 | 80 | 191 | 2.0 | 5.0 | 0.00 | 0.00 | 0.00 | 86 | 1012.9 |
| 20260905131001 | 80 | 195 | 1.0 | 5.0 | 0.00 | 0.00 | 0.00 | 86 | 1012.8 |
| 20260905130503 | 79 | 0 | 0.0 | 0.0 | 0.00 | 0.00 | 0.00 | 87 | 1012.9 |
| 20260905130002 | 78 | 251 | 0.0 | 2.0 | 0.00 | 0.00 | 0.00 | 88 | 1012.8 |
| 20260905125502 | 78 | 251 | 1.0 | 2.0 | 0.00 | 0.00 | 0.00 | 88 | 1012.8 |